Miscellaneous Local Product
Issued by NWS North Platte, NE

Home | Current Version | Previous Version | Graphics & Text | Print | Product List | Glossary On
Versions: 1 2 3 4 5 6 7 8 9 10 11 12 13 14 15 16 17 18 19 20 21 22 23 24 25 26 27 28 29 30 31 32 33 34 35 36 37 38 39 40 41 42 43 44 45 46 47 48 49 50
000
AXUS43 KLBF 270010
MISLBF


WESTERN AND NORTH CENTRAL NEBRASKA HOURLY WEATHER ROUNDUP
NATIONAL WEATHER SERVICE NORTH PLATTE NE
700 PM CDT WED AUG 26 2015

NOTE: "FAIR" INDICATES FEW OR NO CLOUDS BELOW 12,000 FEET WITH NO
SIGNIFICANT WEATHER AND/OR OBSTRUCTIONS TO VISIBILITY.

NOTE: STATIONS NOT REPORTING VARIABLES SUCH AS SKY/WEATHER OR
PRESSURE ARE PROVIDED BY THE NEBRASKA DEPARTMENT OF
ROADS...RAWS...AND APRS NETWORKS...AND ARE NOT UNDER
NATIONAL WEATHER SERVICE QUALITY CONTROL.

...OBSERVATIONS IN AND NEAR THE EASTERN PANHANDLE OF NEBRASKA...

CITY           SKY/WX    TMP DP  RH WIND       PRES   REMARKS
PINE RIDGE     SUNNY     94  54  25 SE8       29.94F HX  92
CHADRON        SUNNY     97  50  20 SE8       29.92F HX  94
ALLIANCE       SUNNY     96  40  14 S10       29.98F HX  92
SIDNEY         MOSUNNY   94  38  14 S9        30.04S
BIG SPRINGS      N/A     92  50  23 SE9         N/A
$$

...OBSERVATIONS IN NORTH CENTRAL NEBRASKA...

CITY           SKY/WX    TMP DP  RH WIND       PRES   REMARKS
VALENTINE      SUNNY     92  65  40 S13       29.98F HX  94
THEDFORD       SUNNY     88  70  55 SE17      30.02F HX  93
AINSWORTH      SUNNY     89  68  50 S12       30.00F HX  92
O`NEILL        MOSUNNY   83  68  60 SE15G23   30.01F
ORD            SUNNY     85  67  54 S15       30.01F
BROKEN BOW     SUNNY     88  70  55 SE14      30.03S HX  93
SPRINGVIEW       N/A     90  72  55 E8          N/A  HX  97
SARGENT          N/A     86  71  60 CALM        N/A  HX  91
CHAMBERS         N/A     83  68  60 E3G12       N/A
EWING            N/A     80  69  70 S6          N/A
$$

...OBSERVATIONS IN SOUTHWEST NEBRASKA AND FAR NORTHEAST COLORADO...

CITY           SKY/WX    TMP DP  RH WIND       PRES   REMARKS
WRAY           FAIR      99  31   9 S15       30.03S HX  93
HOLYOKE        FAIR      86  52  30 S7        30.01F
IMPERIAL       MOSUNNY   96  43  16 S9        29.99F HX  92
OGALLALA       CLOUDY    88  59  36 SE8       29.99S
NORTH PLATTE   SUNNY     85  67  54 SE12      29.99F
MCCOOK         SUNNY     97  55  24 SE7       29.97S HX  95
LEXINGTON      SUNNY     86  72  63 SE12      30.01F HX  92
PAXTON           N/A     83  67  58 SE6         N/A
BRADY            N/A     85  71  63 NE3         N/A  HX  90
CALLAWAY         N/A     82  74  77 SE12        N/A
$$

...OBSERVATIONS IN CENTRAL LINCOLN COUNTY AREA...

CITY           SKY/WX    TMP DP  RH WIND       PRES   REMARKS
N.P. AIRPORT   SUNNY     85  67  54 SE12      29.99F
N.P. DOWNTOWN    N/A     89  68  49 SE3         N/A  HX  92
N.P. SOUTHEAST   N/A     88  67  49 E7          N/A  HX  91
$$

...SOME OBSERVATIONS FROM AROUND THE REGION...

CITY           SKY/WX    TMP DP  RH WIND       PRES   REMARKS
DENVER         CLOUDY    88  36  15 S15G25    30.12S
LARAMIE        CLOUDY    71  43  36 NW8       30.32S
CHEYENNE       CLOUDY    77  45  32 NW5       30.18F
SCOTTSBLUFF    PTSUNNY   89  55  31 S5        29.98F
RAPID CITY     MOSUNNY   87  65  47 E8        29.97F
PIERRE         PTSUNNY   82  67  60 E9        29.95F
WINNER         FAIR      89  64  43 SE14      29.95F HX  90
SIOUX FALLS    PTSUNNY   74  61  63 S14       30.05F
OMAHA          MOSUNNY   76  62  62 SE12      30.09F
GRAND ISLAND   SUNNY     83  67  58 SE12      30.05F
KANSAS CITY    FAIR      78  60  53 E10       30.10S
WICHITA        MOSUNNY   87  72  60 SE14      30.04F HX  93
HAYS           MOSUNNY   93  63  36 SE15      30.00F HX  94
LIBERAL        PTSUNNY   90  54  29 S10       30.10S
GOODLAND       MOSUNNY   92  39  15 S18G24    30.06F
$$



USA.gov is the U.S. government's official web portal to all federal, state and local government web resources and services.